User: anonymous   Login
Location: Unspecified
(0.0000°N, 0.0000°E)
Time: 01:08:14
(UTC+00:00)
Language:

USA-167 - Orbit

View from above orbital plane
View from above orbital plane
View from above satellite
View from above satellite

Ground track
Ground track

The orbit data is extracted from the following two-line orbital elements,

1 27691U 03008A   18345.30990335  .00000061  00000-0  00000+0 0  9995
2 27691   5.6222  61.7595 0002182 268.1360  91.6436  1.00269826  4104
Epoch (UTC): 11 December 2018 07:26:15
Eccentricity: 0.0002182
inclination: 5.6222°
perigee height: 35777 km
apogee height: 35796 km
right ascension of ascending node: 61.7595°
argument of perigee: 268.1360°
revolutions per day: 1.00269826
mean anomaly at epoch: 91.6436°
orbit number at epoch: 410

The dashed part of the orbit path shows where the satellite is in the earth's shadow,  

DLR